Location: Bacharowice
(49.9333°N, 19.5833°E)
Time: 01:32:32
(UTC+00:00)

USA 245 - Pass Details

Date: 11 May 2021
Orbit: 265 x 982 km, 97.9° (Epoch: 18 June)

Event Time Altitude Azimuth Distance (km) Brightness Sun altitude
Exits shadow 19:46:25 25° 171° (S) 588 3.0 -12.1°
Maximum altitude 19:47:31 80° 257° (WSW) 277 1.8 -12.3°
Drops below altitude 10° 19:49:46 10° 344° (NNW) 1,100 6.0 -12.5°
Sets 19:51:38 0° 346° (NNW) 1,955 7.4 -12.7°
